Track STARLINK-2480 now! 10-day predictions STARLINK-2480 is classified as:
1 48137U 21027AX 22177.20618501 .00002584 00000-0 19227-3 0 9990 2 48137 53.0556 103.1295 0001735 67.2051 292.9121 15.06406049 68844